Flag for Australia Weather past 2 weeks in Shepparton, Victoria, Australia

Now
45 °F

Cool.


Feels Like: 40 °F
Forecast: 44 / 53 °F
Wind: 12 mph from Northeast

Location: Mangalore Airport

Current Time: Aug 1, 2015 at 12:23:38 AM

Latest Report: Jul 31, 2015 at 11:00 PM


Visibility: N/A

Pressure: 30.07 "Hg

Humidity: 77%

Dew point: 38 °F

Location of SheppartonLocation

Historic Weather in Shepparton — Graph

°F

Shepparton temperature yesterday

Maximum temperature yesterday: 54 °F (at 2:00 PM)
Minimum temperature yesterday: 35 °F (at 8:00 AM)
Average temperature yesterday: 45 °F

Past Weeks' High & Low Weather Summary

 TemperatureHumidityPressure
High58 °F (Jul 21, 2:00 PM)100% (Jul 19, 8:00 AM)30.61 "Hg (Jul 19, 8:00 AM)
Low29 °F (Jul 27, 6:00 AM)46% (Jul 26, 3:00 PM)29.84 "Hg (Jul 24, 5:00 PM)
Average46 °F81%30.26 "Hg
* Reported Jul 16 11:00 PM — Jul 31 11:00 PM, Shepparton, Weather by CustomWeather, © 2015

Note: Actual official high and low records may vary slightly from our data, if they occured in-between our weather recording intervals... More about our weather records

Advertising

Shepparton weather history for previous 24 hours

 ConditionsComfort  
Time TempWeatherWind HumidityBarometerVisibility
11:00 PM
Fri, Jul 31
45 °FCool.12 mph77%30.07 "HgN/A
9:00 PM44 °FOvercast.9 mph78%30.10 "HgN/A
8:00 PM45 °FCool.12 mph74%30.09 "HgN/A
6:00 PM45 °FCool.7 mph71%30.07 "HgN/A
5:00 PM50 °FCool.9 mph60%30.06 "HgN/A
3:00 PM53 °FCool.9 mph52%30.09 "HgN/A
2:00 PM54 °FCool.8 mph55%30.10 "HgN/A
12:00 PM50 °FCool.3 mph68%30.16 "HgN/A
11:00 AM48 °FCool.7 mph100%30.19 "HgN/A
9:00 AM37 °FLow clouds.5 mph99%30.18 "Hg1 mi
8:00 AM35 °FChilly.No wind99%30.17 "HgN/A
6:00 AM38 °FLow clouds.3 mph99%30.13 "Hg0 mi
5:00 AM40 °FQuite cool.5 mph100%30.12 "HgN/A
3:00 AM41 °FPassing clouds.5 mph100%30.10 "Hg0 mi
2:00 AM42 °FQuite cool.6 mph97%30.10 "HgN/A
12:00 AM46 °FOvercast.3 mph95%30.09 "HgN/A
Weather by CustomWeather, © 2015

See weather overviewHow to use our weather pages